RH
11 9 8 8 7 7 6 8 8 7 7 6 6 5 5 5 6 8 10 13 20 28 20 20 48 45 62 71 94 100 100 100 100 100 100 99 86 100 79 64 61 55 59 56 66
11 8 8 8 6 6 6 6 7 6 6 5 6 5 5 5 6 8 9 12 18 36 27 19 41 47 43 68 87 83 100 100 100 100 100 95 84 100 87 73 65 61 47 41 44
10 7 6 5 5 6 7 7 6 6 5 6 6 5 5 5 6 6 9 12 17 26 41 26 29 99 85 73 100 90 100 100 100 100 100 85 96 100 100 89 74 67 61 43 32
8 6 5 5 5 6 7 6 6 6 5 5 6 5 5 5 6 8 8 9 15 29 38 36 28 70 100 94 100 93 100 100 100 100 100 96 100 100 100 97 90 72 70 66 44
6 5 5 7 7 7 7 6 5 5 5 5 5 5 5 5 8 7 8 10 14 20 43 41 37 37 100 100 100 100 100 100 100 100 100 100 94 100 100 100 100 84 75 77 70
5 6 7 7 7 7 7 6 5 5 4 4 5 5 5 7 7 6 8 9 12 17 28 58 43 52 70 100 100 100 100 100 100 99 100 100 100 85 89 96 100 100 97 98 94
7 8 8 7 6 6 6 6 5 4 4 4 5 5 6 8 6 6 8 9 10 19 22 43 75 36 60 92 100 100 100 100 100 100 100 96 97 94 100 83 100 100 100 100 100
9 8 7 6 5 6 6 6 5 5 4 4 5 4 6 7 7 6 9 10 10 16 36 47 54 65 41 55 80 100 100 100 100 100 100 100 100 99 100 88 81 99 100 100 100
9 8 7 6 4 5 5 5 5 5 4 4 4 4 6 6 8 7 7 10 10 12 23 44 48 56 61 50 71 66 100 100 100 100 100 100 100 100 100 97 93 100 99 84 74
8 8 6 5 4 4 5 5 5 5 4 4 4 4 6 6 6 7 7 8 10 12 14 24 38 52 58 55 50 70 75 100 100 100 100 100 100 100 100 100 98 92 100 88 78
8 7 6 4 4 4 4 4 4 4 4 4 4 4 5 6 7 8 8 9 9 10 13 22 29 38 64 72 97 86 76 82 94 100 100 100 100 100 100 100 100 99 90 95 92
7 6 5 4 4 3 4 4 4 5 6 3 4 5 5 5 8 8 9 8 8 11 13 13 17 63 72 78 96 90 84 64 86 72 100 100 100 100 100 100 100 100 100 100 97
6 5 4 3 3 3 4 4 3 4 4 3 4 5 5 5 8 9 8 8 9 11 12 13 29 53 82 67 82 100 90 88 76 78 59 99 100 100 100 100 100 100 100 100 100
6 5 3 4 3 4 4 3 3 3 3 3 3 4 5 6 9 12 11 13 10 11 13 14 16 28 81 74 73 96 100 100 92 72 68 70 78 100 100 100 99 88 100 100 100
5 4 3 3 3 4 4 3 3 3 3 3 3 4 4 4 5 6 10 16 16 13 13 14 17 20 36 99 93 83 94 100 92 89 62 65 62 62 74 99 100 100 100 87 96
5 4 4 3 3 4 3 3 3 3 3 3 3 3 3 3 3 4 5 10 16 18 14 17 21 19 41 71 100 100 76 94 99 81 70 89 66 98 61 55 39 42 94 100 88
5 4 3 3 4 4 4 4 3 3 3 3 3 3 3 2 3 3 5 6 10 17 15 17 20 18 22 39 63 89 81 76 96 81 66 100 83 100 83 72 71 56 43 47 90
5 4 4 4 4 4 4 3 3 3 3 4 4 3 2 2 3 4 4 5 7 9 15 20 21 20 23 20 63 99 100 84 73 76 86 100 67 100 100 94 100 98 88 60 42
5 4 4 4 4 4 4 4 3 3 4 4 3 3 2 4 4 5 5 4 6 6 9 20 23 29 30 32 30 89 85 100 71 77 100 89 80 86 100 100 100 100 96 81 50
5 4 4 4 4 4 4 4 4 4 4 5 3 3 3 4 4 4 6 5 5 5 7 11 25 33 31 30 28 24 94 92 73 63 85 100 100 87 100 100 100 100 93 92 63
5 4 4 4 4 4 4 4 4 4 6 5 3 3 3 4 4 4 5 6 5 5 8 12 24 37 41 27 26 29 26 46 74 74 72 92 100 96 100 100 100 100 100 83 76
4 4 4 4 4 4 4 4 5 5 7 4 3 3 4 4 4 4 4 6 7 6 9 14 18 31 46 42 38 38 29 53 100 100 76 73 97 100 100 100 100 100 100 88 95
4 4 4 4 4 4 4 5 5 5 7 4 3 4 4 4 4 4 5 6 6 7 10 11 10 20 32 38 38 38 31 24 56 82 100 91 81 93 100 100 100 100 98 85 97
4 4 4 4 4 4 4 5 5 7 6 4 3 4 4 4 4 4 5 5 7 8 9 10 11 14 21 35 42 50 51 30 49 81 95 100 70 72 98 100 100 100 100 91 86
4 4 4 4 5 4 5 6 5 8 5 4 3 5 5 4 4 5 6 6 7 8 9 11 11 12 13 37 63 77 50 34 29 99 98 100 100 82 83 99 100 100 100 100 79
5 5 4 5 5 5 6 6 7 8 4 5 3 6 5 4 4 5 7 8 7 9 11 14 15 14 12 28 59 77 77 64 32 45 90 94 98 100 72 90 100 100 100 100 93
5 5 5 5 6 6 6 6 10 7 5 4 4 6 5 5 6 6 7 9 10 9 10 9 9 9 12 18 52 67 68 98 73 56 87 93 100 100 76 75 95 100 100 100 100
Wind_Speed
77 72 73 73 67 66 61 63 60 60 57 57 53 50 53 54 57 59 66 66 67 67 67 75 86 94 100 98 97 93 86 86 86 87 85 81 75 76 71 68 63 66 70 68 65
78 71 75 74 70 69 64 64 63 61 56 54 51 50 52 54 58 60 66 69 70 69 69 74 86 92 98 100 100 98 87 84 88 92 89 82 79 78 73 70 68 67 69 66 64
78 75 73 66 70 71 74 71 67 61 58 52 50 50 49 53 57 63 66 70 72 74 73 73 82 91 92 97 99 95 91 88 90 90 88 87 80 83 77 73 75 70 70 66 62
74 74 76 75 75 79 80 75 69 61 56 52 50 51 48 49 55 65 67 71 75 77 77 77 79 91 98 94 93 97 92 95 94 90 89 88 84 85 80 78 76 71 71 67 67
74 78 83 87 87 85 84 77 70 63 57 51 51 49 47 44 59 63 67 72 75 78 81 81 80 88 98 97 98 94 99 96 97 95 92 89 91 81 81 80 76 75 76 73 69
81 88 92 91 89 88 85 76 71 65 58 53 51 48 44 44 63 59 67 73 78 81 84 84 84 78 98 104 97 97 96 100 100 96 94 91 89 85 83 81 78 78 81 79 73
92 96 98 94 91 88 83 75 70 66 59 55 51 46 41 53 62 59 65 74 78 82 84 88 88 91 86 105 106 100 99 100 96 95 93 94 93 82 82 82 81 79 79 76 74
97 98 100 94 90 87 78 74 70 66 61 57 52 46 42 55 64 58 66 72 76 82 86 89 93 94 94 88 103 107 104 99 96 94 93 95 91 89 87 84 85 84 80 77 73
100 102 100 95 88 86 77 72 70 66 62 59 55 45 45 56 62 67 67 71 78 82 88 95 96 97 95 93 90 99 109 103 99 97 96 95 90 91 91 87 84 84 85 82 78
102 104 99 93 86 82 76 71 70 65 63 62 57 51 50 59 61 67 67 73 77 82 89 95 97 98 96 96 90 81 84 112 105 102 100 98 93 93 92 91 87 87 85 84 79
106 105 100 90 85 79 76 70 68 66 63 64 60 53 50 56 60 67 70 75 76 81 84 91 97 93 92 95 92 89 86 83 109 116 107 101 101 102 95 92 89 88 86 84 83
108 104 95 89 82 79 75 70 66 62 64 63 57 56 53 52 56 66 70 70 74 75 85 89 90 94 99 98 98 96 92 90 84 92 113 103 99 96 98 93 90 89 86 85 86
107 101 92 87 82 81 76 72 66 61 62 62 55 54 55 50 52 64 70 69 67 78 82 84 89 98 101 98 100 97 91 88 88 83 89 112 102 97 92 91 94 91 90 87 85
107 98 90 85 83 83 79 74 68 63 62 58 54 49 51 49 52 65 69 69 71 72 80 84 88 94 104 103 99 100 95 94 90 88 80 78 95 101 99 93 93 96 94 88 85
104 95 90 85 85 84 79 74 70 65 62 55 51 47 44 41 52 58 69 73 74 72 79 76 85 92 98 101 101 98 101 100 95 88 85 76 73 73 93 104 102 94 92 97 93
101 94 89 90 86 84 79 75 71 67 61 56 50 44 40 38 44 55 61 64 73 78 76 79 86 92 98 103 105 103 101 104 99 91 82 74 72 65 63 58 64 79 102 98 89
99 95 91 90 89 85 80 76 73 67 60 55 50 43 37 36 38 46 56 64 67 75 78 79 84 87 95 102 103 105 101 101 105 99 82 78 71 61 65 55 55 54 61 76 97
100 95 92 91 89 84 81 77 72 66 60 54 50 41 35 32 32 37 47 60 68 75 76 77 82 83 87 92 101 100 105 99 100 91 85 81 69 59 66 60 59 56 54 54 52
100 95 94 92 88 84 81 77 72 65 59 54 48 40 32 29 27 31 41 53 61 65 69 77 80 82 85 90 97 105 103 105 97 94 89 85 77 68 71 64 62 60 57 56 55
100 95 96 91 87 83 80 76 70 64 58 53 46 39 30 26 27 28 37 45 55 55 61 69 78 80 84 89 95 92 106 103 96 88 92 86 81 73 72 71 66 64 60 55 51
99 94 93 89 85 81 79 75 68 62 57 50 44 36 28 23 24 29 36 40 42 44 53 66 75 79 81 86 85 88 93 95 95 92 88 90 85 79 77 73 70 68 63 56 51
97 94 91 86 82 78 75 71 64 58 55 47 42 33 28 23 24 30 34 39 43 45 54 68 78 83 83 79 83 87 91 99 101 92 87 88 88 85 78 75 71 71 65 58 52
96 94 88 83 80 76 72 66 61 57 52 44 39 32 27 24 22 27 33 39 42 43 53 67 72 81 86 84 84 86 88 85 92 95 96 89 89 88 82 77 73 69 65 61 56
96 91 85 80 77 74 69 64 59 55 49 43 36 30 27 23 23 28 32 39 45 47 54 64 69 74 80 80 77 81 85 84 90 93 93 92 91 86 86 80 75 72 67 63 62
93 87 80 78 75 72 66 62 56 54 46 41 35 29 26 24 22 26 29 35 42 48 53 61 63 68 71 77 75 79 82 82 81 97 96 93 94 87 88 84 78 72 69 65 63
89 83 78 74 71 68 63 58 56 52 44 38 33 28 26 24 21 22 26 32 38 45 52 58 61 65 66 75 76 80 84 86 79 86 93 100 95 96 89 86 83 77 70 66 64
85 78 74 72 68 65 61 57 55 49 43 36 31 26 24 22 19 19 23 29 36 46 54 61 65 65 69 75 83 82 78 84 84 79 86 91 96 95 89 85 82 81 73 68 63
Wind_Direction
330 328 326 323 321 318 318 320 315 307 302 299 293 285 276 263 256 247 240 237 228 226 225 222 222 221 221 221 220 220 220 221 223 226 229 228 226 229 226 229 232 232 233 235 236
328 327 328 323 318 320 322 321 318 313 305 297 293 287 277 266 254 249 243 237 232 224 223 221 221 222 221 221 220 220 218 221 223 226 228 229 228 232 230 227 230 232 235 236 236
325 324 323 324 323 326 327 324 322 316 307 298 292 287 278 266 252 247 242 237 232 226 221 221 221 220 224 222 221 220 220 221 222 227 228 229 229 231 229 226 228 229 234 235 236
323 325 327 330 329 327 326 324 321 315 308 301 293 287 280 267 255 245 242 239 234 227 222 218 220 221 223 221 221 223 219 222 223 224 227 227 229 232 230 228 228 227 233 235 235
324 332 332 335 329 327 326 323 320 315 309 303 295 289 283 270 250 246 242 238 235 230 223 219 219 219 219 220 223 221 222 221 222 223 224 225 226 227 230 228 228 227 231 233 233
332 337 335 332 327 326 325 322 318 314 309 304 296 291 283 263 252 246 242 238 235 233 226 222 218 218 218 218 219 221 223 224 222 223 224 224 225 227 229 227 228 231 232 233 234
337 334 333 329 326 324 324 321 317 314 309 304 296 291 279 255 256 249 240 239 234 231 231 222 220 218 217 220 220 218 223 225 227 225 227 226 226 225 228 227 227 230 233 236 238
336 331 330 327 324 322 322 320 317 314 309 304 298 291 275 260 256 247 239 237 235 231 229 226 222 220 218 217 221 220 220 222 225 226 228 228 228 226 228 227 225 228 230 233 238
331 329 330 325 323 321 320 320 315 314 310 304 298 293 274 262 251 248 239 235 235 231 227 228 226 223 219 218 215 222 220 222 225 225 226 228 226 228 228 228 226 228 232 233 232
330 329 328 325 321 320 319 319 315 314 310 305 298 293 271 265 258 253 244 236 232 230 228 227 227 224 221 220 220 217 222 222 224 225 225 227 225 229 229 229 228 227 230 234 235
330 328 326 324 320 319 320 320 317 316 311 303 301 296 281 266 259 248 242 237 233 233 231 228 229 227 224 221 219 218 217 218 223 224 224 225 226 227 228 229 229 231 232 233 235
329 327 325 322 321 319 321 319 317 317 311 306 304 293 279 267 257 252 247 240 237 232 230 230 229 226 223 221 219 220 218 216 220 226 223 224 225 229 231 231 231 232 233 234 237
328 326 324 322 322 320 323 319 319 318 310 309 300 289 282 275 255 253 250 243 235 232 231 231 224 225 224 225 220 220 220 220 219 223 224 224 225 226 230 233 233 233 234 235 237
327 326 324 324 323 323 323 321 320 319 314 310 302 288 279 270 257 247 249 244 238 230 231 227 225 223 224 224 220 219 220 221 221 220 220 219 226 228 228 229 233 235 235 234 237
326 327 325 324 324 325 324 323 322 320 317 313 303 295 284 266 253 248 241 238 237 231 229 230 226 224 223 224 224 220 219 221 221 220 217 219 221 226 233 233 234 234 237 239 237
327 328 327 325 326 326 325 325 324 323 321 315 308 301 288 272 256 245 241 241 235 233 226 224 222 222 221 221 224 224 221 219 222 219 217 216 218 225 226 228 231 235 236 236 238
329 330 328 327 327 328 326 326 326 325 323 317 313 307 295 279 259 244 238 235 233 233 231 222 223 221 220 221 221 222 222 220 220 219 215 219 215 218 227 225 228 230 234 237 239
331 331 327 327 328 329 328 327 328 327 325 322 318 311 300 281 261 246 238 232 228 229 227 225 222 224 222 223 221 221 224 224 223 218 218 221 214 206 228 220 227 226 228 228 227
332 329 326 328 329 329 328 328 328 328 326 325 320 313 301 281 263 248 237 233 230 230 226 223 221 219 219 220 221 221 220 224 224 216 216 219 216 205 225 222 223 227 227 231 228
331 328 327 328 329 329 329 328 329 329 328 325 319 312 299 285 268 250 241 233 232 227 226 224 219 219 219 218 220 219 220 221 223 218 216 216 216 211 219 224 223 227 225 227 230
330 327 327 328 329 330 329 329 329 329 328 325 319 311 300 288 266 249 237 236 235 225 219 222 218 217 220 221 220 219 222 220 219 219 215 214 215 215 218 220 222 223 226 226 230
330 326 327 328 329 330 328 329 328 328 328 324 318 311 301 285 263 248 241 234 229 222 214 218 216 215 218 217 218 219 219 215 215 218 219 215 215 215 214 220 220 225 224 224 226
328 325 328 328 328 330 329 328 328 328 328 324 318 312 301 288 268 244 234 234 231 224 215 220 221 217 216 216 216 218 220 218 214 213 216 217 215 214 213 220 219 222 223 222 223
326 326 328 329 329 329 330 328 328 329 329 324 319 311 302 290 270 249 234 227 226 222 217 219 220 219 218 217 217 218 220 218 214 214 215 217 216 217 215 220 221 224 224 223 223
326 327 328 328 329 329 330 328 330 330 329 325 319 312 304 290 273 255 239 226 225 223 217 221 220 221 218 214 213 218 220 220 214 213 213 215 218 219 217 219 223 224 224 225 224
325 327 328 328 328 330 330 330 330 331 329 327 320 313 306 293 278 257 241 230 223 221 218 218 219 221 218 213 211 213 217 219 216 213 215 217 215 218 217 217 223 223 222 224 227
325 327 326 327 328 330 330 330 331 332 328 328 319 314 306 291 276 255 238 229 223 222 220 219 219 215 213 212 209 213 214 215 219 212 213 216 217 218 218 217 222 225 222 222 226